Regional Weather Roundup
Issued by NWS

Home | Current Version | Previous Version | Text Only | Print | Product List | Glossary On
Versions: 1 2 3 4 5 6 7 8 9 10 11 12 13 14 15 16 17 18 19 20 21 22 23 24 25 26 27 28 29 30 31 32 33 34 35 36 37 38 39 40 41 42 43 44 45 46 47 48 49 50
000
ASUS44 KJAN 010210
RWRMS

MISSISSIPPI HOURLY WEATHER ROUNDUP
NATIONAL WEATHER SERVICE JACKSON MS
900 PM CDT TUE JUN 30 2015

NOTE: "FAIR: INDICATES FEW OR NO CLOUDS BELOW 12,000 FEET WITH NO
SIGNIFICANT WEATHER AND/OR OBSTRUCTIONS TO VISIBILITY.

MSZ001>002-007>008-010>013-018>021-025>028-034>036-010300-
NORTHWEST MISSISSIPPI

CITY           SKY/WX    TMP DP  RH WIND       PRES   REMARKS
CLARKSDALE     FAIR      81  81 100 CALM      29.98R HX  91
CLEVELAND      FAIR      79  78  97 S6        29.97R
GREENWOOD      CLEAR     78  74  87 S6        29.99R
GREENVILLE     PTCLDY    81  75  82 SW21G26   29.98R
OLIVE BRANCH   CLEAR     75  75 100 S6        29.96R
OXFORD         FAIR      73  72  94 CALM      30.00R
TUNICA         CLEAR     77  70  78 S3        29.97R
$$

MSZ003>006-009-014>017-022>024-029>033-037>039-010300-
NORTHEAST MISSISSIPPI

CITY           SKY/WX    TMP DP  RH WIND       PRES   REMARKS
COLUMBUS AFB   CLEAR     73  72  95 SE1       29.99R
CORINTH        FAIR      77  72  83 S6        29.96S
GOLDN TRIANGLE PTCLDY    77  72  83 S5        29.99R
STARKVILLE     FAIR      73  72  94 CALM      29.99R THUNDER
TUPELO         CLEAR     75  72  90 S3        29.99R
$$

MSZ040-058-010300-
CENTRAL MISSISSIPPI

CITY           SKY/WX    TMP DP  RH WIND       PRES   REMARKS
JACKSON INTL   CLOUDY    73  67  81 SW6       30.04R
JACKSON HAWKNS CLOUDY    72  67  84 SW6       30.05R
MERIDIAN KEY   CLOUDY    74  66  76 SW7       30.03S
MERIDIAN NAS   TSTM      74  69  85 SW9       30.01F
VICKSBURG      CLOUDY    75  67  76 VRB3      30.04R
$$

MSZ059>079-010300-
SOUTH MISSISSIPPI

CITY           SKY/WX    TMP DP  RH WIND       PRES   REMARKS
BROOKHAVEN     FAIR      73  66  78 W3        30.07R
HATTIESBURG    CLOUDY    76  66  71 S6        30.04F
MCCOMB         CLOUDY    71  68  90 S5        30.07R
NATCHEZ        CLOUDY    75  66  73 SW7       30.06R
PINE BELT      CLOUDY    73  64  73 N14       30.07R
$$

MSZ080>082-010300-
COASTAL MISSISSIPPI

CITY           SKY/WX    TMP DP  RH WIND       PRES   REMARKS
BAY ST LOUIS   PTCLDY    73  66  78 MISG      30.08R
BILOXI         CLOUDY    79  74  82 NW5       30.06R
PASCAGOULA     MOCLDY    78  75  90 CALM      30.07R
GULFPORT       CLOUDY    79  73  82 CALM      30.07R
$$



USA.gov is the U.S. government's official web portal to all federal, state and local government web resources and services.